COSMOS 2325 (GLONASS)

Satellite information

Favourite Embed

Satellite Type and Status

PAYLOADIN ORBIT

Key statistics

Satellite COSMOS 2325 (GLONASS) at a glance.

Uptime

10910

Days in orbit

Revolutions

≈ 2.1

Per day

Orbit

MEO

Medium Earth Orbit

Inclination

65.5

Latest

Satellite identification and parameters

Extended collection of information and parameters for COSMOS 2325 (GLONASS).

Object identification

Identified? True

Debris? False

Object name: COSMOS 2325 (GLONASS)

International designator: 1995-068A

Object number (NORAD): 23734

Object ID (CCSDS): 23734

Country: COMMONWEALTH OF INDEPENDENT STATES (CIS)

Current information (Y/N): Y

RCS size: LARGE

Orbital parameters

Period: 675.732 minutes

Inclination: 65.4753 deg

SMA: 25508.017 km

Apoapsis: 19186.483 km

Periapsis: 19073.282 km

RAAN: 210.3658 deg

Eccentricy: 0.00221892

Argument of periapsis: 226.7685 deg

Mean anomaly: 322.3908 deg

Mean motion: 2.13102087 rev/day

Mean motion (dot): 0.00000022 rev/day2

B* drag term: 0.0 1/REarth

Two-line elements (TLE)

Creation date: Oct. 26, 2025, 2:54 a.m.

Reference frame: TEME

Reference center: EARTH

Epoch: Oct. 25, 2025, 5:22 p.m. UTC

TLE line 0: 0 COSMOS 2325 (GLONASS)

TLE line 1: 1 23734U 95068A 25298.72423660 .00000022 00000-0 00000-0 0 9997

TLE line 2: 2 23734 65.4753 210.3658 0022189 226.7685 322.3908 2.13102087232394

Live tracking on map

Real-time ground track for satellite COSMOS 2325 (GLONASS).

In-orbit conjunctions

There are no conjunctions computed for COSMOS 2325 (GLONASS), at the moment. Check back to stay up to date, as we update our databases every day.

Go to all conjunctions

Associated space launch

GLONASS navigation satellites

COSMOS 2325 (GLONASS) was lifted into orbit during the mission ‘Proton | Uragan 69 to 71’, on board a Proton space rocket.

The launch took place on Dec. 14, 1995, 6:10 a.m. from 200/39 (200L).

For more information about the launch, click the button.

Launch to space Proton | Uragan 69 to 71
Proton | Uragan 69 to 71

Agency: N/A

Status: Launch Successful

Launch date: Dec. 14, 1995, 6:10 a.m. UTC

Rocket: Proton

Launch pad: 200/39 (200L)

Location: Baikonur Cosmodrome, Republic of Kazakhstan

...

Latest news about this satellite

There are no fresh news available about this satellite. Check back as we update our databases every day.


Newsletter sign-up

Weekly statistics, charts and insights to help you stay on top of the space industry.